User: anonymous   Login
Location: Nag� el Ma?a??a
(24.0667°N, 32.8833°E)
Time: 17:46:28
(UTC+00:00)
Language:

Cosmos 1869 Rocket - Orbit

View from above orbital plane
View from above orbital plane
View from above satellite
View from above satellite

Ground track
Ground track

The orbit data is extracted from the following two-line orbital elements,

1 18215U 87062B   21340.38596002  .00000127  00000-0  12449-4 0  9997
2 18215  82.5127 192.7462 0021407 140.4506  32.5054 14.83297244858058
Epoch (UTC): 06 December 2021 09:15:46
Eccentricity: 0.0021407
inclination: 82.5127°
perigee height: 604 km
apogee height: 634 km
right ascension of ascending node: 192.7462°
argument of perigee: 140.4506°
revolutions per day: 14.83297244
mean anomaly at epoch: 32.5054°
orbit number at epoch: 85805

The dashed part of the orbit path shows where the satellite is in the earth's shadow,  

DLR